Back to catalog

ICON

AliveScienceVLEO
NORAD 44628·PAYLOAD·🇺🇸 United States

Launched Oct 11, 2019 from Cape Canaveral Space Force Station

Loading…

Next Passes (next 24 hours)

TLE

FreshSource: Space-Track

Epoch: Sep 13, 2026, 22:54 UTC

1 44628U 19068A   26256.95476586  .00003279  00000-0  19558-3 0  9991
2 44628  26.9830 149.8805 0013571 120.1442 240.0466 15.07433352379442

Track ICON in real time with AllMySat

Download on the App Store